Private Wetterstation Wechselburg
Wetterdaten: Freitag, 01.03.2013
Datum Zeit Temp. +2m Bodentemp. Temp.+5cm Temp. Wind Windchill X Diff Temp. Feuchte +2m Feuchte +5cm Sonnenschein Luftdruck Regen Wind Richtung Richtung Sonnenschein UV Taupunkt Windchill Windben
01.03.2013 00:00 0,1 C 8,0 C 0,7 C 0,0 C -0,2 C 0,0 C 89 % 94 % 0 % 1024,9 hPa 0,0 l/m 4,0 km/h (1 Bft) W-SW 247 0 min 0,0 UV-I -1,5 C -0,2 C 5,0 km/h (1 Bft)
01.03.2013 00:05 0,1 C 8,0 C 0,7 C -0,1 C -0,6 C 0,0 C 88 % 94 % 0 % 1024,9 hPa 0,0 l/m 4,8 km/h (1 Bft) W 270 0 min 0,0 UV-I -1,6 C -2,2 C 6,3 km/h (2 Bft)
01.03.2013 00:10 0,0 C 8,0 C 0,7 C -0,4 C -1,1 C 0,0 C 88 % 95 % 0 % 1024,9 hPa 0,0 l/m 5,8 km/h (2 Bft) S-SW 202 0 min 0,0 UV-I -1,7 C -3,2 C 4,3 km/h (1 Bft)
01.03.2013 00:15 0,0 C 8,0 C 0,7 C -0,3 C -0,8 C 0,0 C 88 % 94 % 0 % 1024,9 hPa 0,0 l/m 5,3 km/h (1 Bft) SW 225 0 min 0,0 UV-I -1,7 C -2,6 C 6,6 km/h (2 Bft)
01.03.2013 00:20 0,0 C 8,0 C 0,7 C -0,3 C -0,9 C 0,0 C 88 % 95 % 0 % 1024,4 hPa 0,0 l/m 5,5 km/h (1 Bft) SW 225 0 min 0,0 UV-I -1,7 C -2,8 C 6,0 km/h (2 Bft)
01.03.2013 00:25 0,0 C 8,0 C 0,7 C -0,4 C -1,1 C 0,0 C 88 % 94 % 0 % 1024,4 hPa 0,0 l/m 6,1 km/h (2 Bft) SW 225 0 min 0,0 UV-I -1,7 C -3,3 C 11,7 km/h (2 Bft)
01.03.2013 00:30 0,1 C 7,8 C 0,7 C -0,3 C -1,0 C 0,0 C 88 % 95 % 0 % 1024,4 hPa 0,0 l/m 6,0 km/h (2 Bft) W-SW 247 0 min 0,0 UV-I -1,6 C -3,2 C 9,5 km/h (2 Bft)
01.03.2013 00:35 0,1 C 8,0 C 0,7 C -0,3 C -1,0 C 0,0 C 88 % 95 % 0 % 1024,4 hPa 0,0 l/m 6,0 km/h (2 Bft) SW 225 0 min 0,0 UV-I -1,6 C -3,2 C 7,1 km/h (2 Bft)
01.03.2013 00:40 0,1 C 7,8 C 0,6 C -0,3 C -1,1 C 0,0 C 88 % 95 % 0 % 1024,1 hPa 0,0 l/m 6,3 km/h (2 Bft) W-SW 247 0 min 0,0 UV-I -1,6 C -3,4 C 9,8 km/h (2 Bft)
01.03.2013 00:45 0,1 C 8,0 C 0,6 C -0,4 C -1,3 C 0,0 C 87 % 95 % 0 % 1024,1 hPa 0,0 l/m 6,6 km/h (2 Bft) W-SW 247 0 min 0,0 UV-I -1,8 C -3,8 C 5,3 km/h (1 Bft)
01.03.2013 00:50 0,1 C 8,0 C 0,7 C -0,3 C -1,2 C 0,0 C 87 % 95 % 0 % 1024,1 hPa 0,0 l/m 6,4 km/h (2 Bft) S 180 0 min 0,0 UV-I -1,8 C -3,6 C 7,4 km/h (2 Bft)
01.03.2013 00:55 0,1 C 8,0 C 0,7 C -0,3 C -1,2 C 0,0 C 87 % 95 % 0 % 1024,1 hPa 0,0 l/m 6,4 km/h (2 Bft) W-SW 247 0 min 0,0 UV-I -1,8 C -3,6 C 12,7 km/h (3 Bft)
01.03.2013 01:00 0,3 C 7,8 C 0,6 C -0,2 C -1,3 C 0,0 C 87 % 94 % 0 % 1024,0 hPa 0,0 l/m 6,8 km/h (2 Bft) SW 225 0 min 0,0 UV-I -1,6 C -3,8 C 8,5 km/h (2 Bft)
01.03.2013 01:05 0,1 C 8,0 C 0,7 C -0,4 C -1,3 C 0,0 C 87 % 95 % 0 % 1024,0 hPa 0,0 l/m 6,3 km/h (2 Bft) SW 225 0 min 0,0 UV-I -1,8 C -3,6 C 10,3 km/h (2 Bft)
01.03.2013 01:10 0,2 C 7,8 C 0,6 C -0,3 C -1,3 C 0,0 C 87 % 94 % 0 % 1024,0 hPa 0,0 l/m 6,4 km/h (2 Bft) W 270 0 min 0,0 UV-I -1,7 C -3,7 C 5,8 km/h (2 Bft)
01.03.2013 01:15 0,3 C 7,8 C 0,6 C -0,3 C -1,5 C 0,0 C 87 % 94 % 0 % 1024,0 hPa 0,0 l/m 6,9 km/h (2 Bft) W-SW 247 0 min 0,0 UV-I -1,6 C -4,1 C 13,7 km/h (3 Bft)
01.03.2013 01:20 0,2 C 8,0 C 0,7 C -0,4 C -1,5 C 0,0 C 87 % 94 % 0 % 1023,7 hPa 0,0 l/m 6,9 km/h (2 Bft) W 270 0 min 0,0 UV-I -1,7 C -4,1 C 9,8 km/h (2 Bft)
01.03.2013 01:25 0,3 C 7,8 C 0,6 C -0,3 C -1,5 C 0,0 C 87 % 94 % 0 % 1023,7 hPa 0,0 l/m 6,9 km/h (2 Bft) W-SW 247 0 min 0,0 UV-I -1,6 C -4,1 C 5,6 km/h (1 Bft)
01.03.2013 01:30 0,3 C 7,8 C 0,6 C -0,2 C -1,3 C 0,0 C 87 % 94 % 0 % 1023,7 hPa 0,0 l/m 6,8 km/h (2 Bft) SW 225 0 min 0,0 UV-I -1,6 C -3,8 C 4,7 km/h (1 Bft)
01.03.2013 01:35 0,3 C 7,8 C 0,7 C -0,2 C -1,3 C 0,0 C 87 % 94 % 0 % 1023,7 hPa 0,0 l/m 6,3 km/h (2 Bft) SW 225 0 min 0,0 UV-I -1,6 C -3,6 C 9,8 km/h (2 Bft)
01.03.2013 01:40 0,3 C 7,8 C 0,7 C -0,3 C -1,6 C 0,0 C 87 % 94 % 0 % 1023,4 hPa 0,0 l/m 7,1 km/h (2 Bft) SW 225 0 min 0,0 UV-I -1,6 C -4,3 C 8,5 km/h (2 Bft)
01.03.2013 01:45 0,2 C 7,8 C 0,7 C -0,2 C -1,8 C 0,0 C 86 % 94 % 0 % 1023,4 hPa 0,0 l/m 7,7 km/h (2 Bft) W-SW 247 0 min 0,0 UV-I -1,9 C -4,7 C 9,0 km/h (2 Bft)
01.03.2013 01:50 0,3 C 7,8 C 0,7 C -0,3 C -1,6 C 0,0 C 87 % 94 % 0 % 1023,4 hPa 0,0 l/m 7,1 km/h (2 Bft) W-SW 247 0 min 0,0 UV-I -1,6 C -4,3 C 5,5 km/h (1 Bft)
01.03.2013 01:55 0,3 C 7,8 C 0,7 C -0,2 C -1,3 C 0,0 C 87 % 94 % 0 % 1023,4 hPa 0,0 l/m 6,3 km/h (2 Bft) W-SW 247 0 min 0,0 UV-I -1,6 C -3,6 C 6,4 km/h (2 Bft)
01.03.2013 02:00 0,3 C 7,8 C 0,7 C -0,3 C -1,4 C 0,0 C 87 % 94 % 0 % 1023,6 hPa 0,0 l/m 6,6 km/h (2 Bft) SW 225 0 min 0,0 UV-I -1,6 C -3,9 C 6,6 km/h (2 Bft)
01.03.2013 02:05 0,3 C 7,8 C 0,7 C -0,3 C -1,6 C 0,0 C 87 % 94 % 0 % 1023,6 hPa 0,0 l/m 7,1 km/h (2 Bft) SW 225 0 min 0,0 UV-I -1,6 C -4,3 C 9,5 km/h (2 Bft)
01.03.2013 02:10 0,3 C 7,8 C 0,7 C -0,3 C -1,6 C 0,0 C 87 % 94 % 0 % 1023,6 hPa 0,0 l/m 7,1 km/h (2 Bft) SW 225 0 min 0,0 UV-I -1,6 C -4,3 C 5,0 km/h (1 Bft)
01.03.2013 02:15 0,3 C 7,8 C 0,7 C -0,3 C -1,6 C 0,0 C 86 % 94 % 0 % 1023,6 hPa 0,0 l/m 7,2 km/h (2 Bft) S-SW 202 0 min 0,0 UV-I -1,8 C -4,3 C 9,5 km/h (2 Bft)
01.03.2013 02:20 0,2 C 7,8 C 0,7 C -0,4 C -1,7 C 0,0 C 86 % 94 % 0 % 1023,1 hPa 0,0 l/m 7,6 km/h (2 Bft) W-SW 247 0 min 0,0 UV-I -1,9 C -4,6 C 10,8 km/h (2 Bft)
01.03.2013 02:25 0,3 C 7,8 C 0,7 C -0,1 C -1,8 C 0,0 C 86 % 94 % 0 % 1023,1 hPa 0,0 l/m 7,7 km/h (2 Bft) W-SW 247 0 min 0,0 UV-I -1,8 C -4,7 C 8,5 km/h (2 Bft)
01.03.2013 02:30 0,3 C 7,8 C 0,7 C -0,3 C -1,6 C 0,0 C 86 % 94 % 0 % 1023,1 hPa 0,0 l/m 7,2 km/h (2 Bft) W-SW 247 0 min 0,0 UV-I -1,8 C -4,3 C 4,8 km/h (1 Bft)
01.03.2013 02:35 0,3 C 7,8 C 0,6 C -0,2 C -1,3 C 0,0 C 86 % 94 % 0 % 1023,1 hPa 0,0 l/m 6,3 km/h (2 Bft) W 270 0 min 0,0 UV-I -1,8 C -3,6 C 7,1 km/h (2 Bft)
01.03.2013 02:40 0,3 C 7,8 C 0,6 C -0,2 C -1,2 C 0,0 C 86 % 94 % 0 % 1023,0 hPa 0,0 l/m 6,1 km/h (2 Bft) W 270 0 min 0,0 UV-I -1,8 C -3,4 C 7,6 km/h (2 Bft)
01.03.2013 02:45 0,1 C 7,8 C 0,5 C -0,4 C -1,5 C 0,0 C 86 % 94 % 0 % 1023,0 hPa 0,0 l/m 6,9 km/h (2 Bft) SW 225 0 min 0,0 UV-I -2,0 C -4,1 C 10,1 km/h (2 Bft)
01.03.2013 02:50 0,1 C 7,8 C 0,5 C -0,4 C -1,5 C 0,0 C 86 % 94 % 0 % 1023,0 hPa 0,0 l/m 6,9 km/h (2 Bft) SW 225 0 min 0,0 UV-I -2,0 C -4,1 C 11,9 km/h (2 Bft)
01.03.2013 02:55 0,2 C 7,8 C 0,5 C -0,4 C -1,7 C 0,0 C 86 % 94 % 0 % 1023,0 hPa 0,0 l/m 7,4 km/h (2 Bft) W-SW 247 0 min 0,0 UV-I -1,9 C -4,5 C 10,0 km/h (2 Bft)
01.03.2013 03:00 0,3 C 7,8 C 0,5 C -0,3 C -1,6 C 0,0 C 86 % 94 % 0 % 1022,4 hPa 0,0 l/m 7,1 km/h (2 Bft) W-SW 247 0 min 0,0 UV-I -1,8 C -4,3 C 4,8 km/h (1 Bft)
01.03.2013 03:05 0,2 C 7,8 C 0,6 C -0,3 C -1,4 C 0,0 C 86 % 94 % 0 % 1022,4 hPa 0,0 l/m 6,8 km/h (2 Bft) W-SW 247 0 min 0,0 UV-I -1,9 C -4,0 C 7,1 km/h (2 Bft)
01.03.2013 03:10 0,3 C 7,8 C 0,5 C -0,3 C -1,4 C 0,0 C 86 % 94 % 0 % 1022,4 hPa 0,0 l/m 6,8 km/h (2 Bft) W-SW 247 0 min 0,0 UV-I -1,8 C -4,0 C 6,8 km/h (2 Bft)
01.03.2013 03:15 0,2 C 7,8 C 0,5 C -0,4 C -1,5 C 0,0 C 86 % 94 % 0 % 1022,4 hPa 0,0 l/m 6,8 km/h (2 Bft) W-SW 247 0 min 0,0 UV-I -1,9 C -4,1 C 10,9 km/h (2 Bft)
01.03.2013 03:20 0,3 C 7,8 C 0,5 C -0,3 C -1,5 C 0,0 C 85 % 94 % 0 % 1023,1 hPa 0,0 l/m 6,8 km/h (2 Bft) SW 225 0 min 0,0 UV-I -1,9 C -4,1 C 6,1 km/h (2 Bft)
01.03.2013 03:25 0,3 C 7,8 C 0,5 C -0,2 C -1,3 C 0,0 C 85 % 94 % 0 % 1023,1 hPa 0,0 l/m 6,1 km/h (2 Bft) S-SW 202 0 min 0,0 UV-I -1,9 C -3,6 C 4,3 km/h (1 Bft)
01.03.2013 03:30 0,1 C 7,8 C 0,5 C -0,2 C -0,8 C 0,0 C 86 % 94 % 0 % 1023,1 hPa 0,0 l/m 5,0 km/h (1 Bft) W-SW 247 0 min 0,0 UV-I -2,0 C -2,5 C 5,3 km/h (1 Bft)
01.03.2013 03:35 0,1 C 7,8 C 0,5 C -0,2 C -0,7 C 0,0 C 86 % 94 % 0 % 1023,1 hPa 0,0 l/m 4,8 km/h (1 Bft) W-SW 247 0 min 0,0 UV-I -2,0 C -2,3 C 7,9 km/h (2 Bft)
01.03.2013 03:40 0,1 C 7,8 C 0,5 C -0,3 C -1,1 C 0,0 C 86 % 94 % 0 % 1022,4 hPa 0,0 l/m 5,8 km/h (2 Bft) W-SW 247 0 min 0,0 UV-I -2,0 C -3,2 C 6,9 km/h (2 Bft)
01.03.2013 03:45 0,1 C 7,8 C 0,5 C -0,5 C -1,6 C 0,0 C 85 % 94 % 0 % 1022,4 hPa 0,0 l/m 7,1 km/h (2 Bft) SO 135 0 min 0,0 UV-I -2,1 C -4,3 C 8,9 km/h (2 Bft)
01.03.2013 03:50 0,2 C 7,8 C 0,5 C -0,4 C -1,6 C 0,0 C 85 % 94 % 0 % 1022,4 hPa 0,0 l/m 7,1 km/h (2 Bft) W-SW 247 0 min 0,0 UV-I -2,0 C -4,3 C 6,3 km/h (2 Bft)
01.03.2013 03:55 0,1 C 7,8 C 0,5 C -0,3 C -1,1 C 0,0 C 86 % 94 % 0 % 1022,4 hPa 0,0 l/m 5,8 km/h (2 Bft) S-SW 202 0 min 0,0 UV-I -2,0 C -3,2 C 5,0 km/h (1 Bft)
01.03.2013 04:00 0,1 C 7,8 C 0,5 C -0,2 C -0,9 C 0,0 C 86 % 94 % 0 % 1022,5 hPa 0,0 l/m 5,3 km/h (1 Bft) W-SW 247 0 min 0,0 UV-I -2,0 C -2,8 C 10,3 km/h (2 Bft)
01.03.2013 04:05 0,1 C 7,8 C 0,5 C -0,3 C -1,1 C 0,0 C 86 % 94 % 0 % 1022,5 hPa 0,0 l/m 5,5 km/h (1 Bft) W-SW 247 0 min 0,0 UV-I -2,0 C -3,1 C 5,5 km/h (1 Bft)
01.03.2013 04:10 0,0 C 7,8 C 0,5 C -0,4 C -1,3 C 0,0 C 86 % 94 % 0 % 1022,5 hPa 0,0 l/m 6,0 km/h (2 Bft) W-SW 247 0 min 0,0 UV-I -2,1 C -3,5 C 6,4 km/h (2 Bft)
01.03.2013 04:15 0,0 C 7,8 C 0,5 C -0,4 C -1,2 C 0,0 C 86 % 93 % 0 % 1022,5 hPa 0,0 l/m 5,6 km/h (1 Bft) W-SW 247 0 min 0,0 UV-I -2,1 C -3,2 C 6,6 km/h (2 Bft)
01.03.2013 04:20 0,0 C 7,8 C 0,4 C -0,4 C -1,2 C 0,0 C 86 % 94 % 0 % 1022,8 hPa 0,0 l/m 5,6 km/h (1 Bft) S-SW 202 0 min 0,0 UV-I -2,1 C -3,2 C 6,3 km/h (2 Bft)
01.03.2013 04:25 0,0 C 7,8 C 0,5 C -0,5 C -1,4 C 0,0 C 86 % 93 % 0 % 1022,8 hPa 0,0 l/m 6,1 km/h (2 Bft) SW 225 0 min 0,0 UV-I -2,1 C -3,7 C 5,8 km/h (2 Bft)
01.03.2013 04:30 0,0 C 7,8 C 0,4 C -0,5 C -1,4 C 0,0 C 86 % 93 % 0 % 1022,8 hPa 0,0 l/m 6,1 km/h (2 Bft) W-SW 247 0 min 0,0 UV-I -2,1 C -3,7 C 5,8 km/h (2 Bft)
01.03.2013 04:35 0,0 C 7,8 C 0,4 C -0,4 C -1,3 C 0,0 C 86 % 93 % 0 % 1022,8 hPa 0,0 l/m 5,8 km/h (2 Bft) W-SW 247 0 min 0,0 UV-I -2,1 C -3,4 C 4,8 km/h (1 Bft)
01.03.2013 04:40 0,1 C 7,8 C 0,4 C -0,2 C -0,9 C 0,0 C 86 % 93 % 0 % 1022,2 hPa 0,0 l/m 5,0 km/h (1 Bft) W-SW 247 0 min 0,0 UV-I -2,0 C -2,6 C 4,7 km/h (1 Bft)
01.03.2013 04:45 -0,1 C 7,8 C 0,4 C -0,1 C -0,2 C 0,0 C 86 % 93 % 0 % 1022,2 hPa 0,0 l/m 3,5 km/h (1 Bft) W-SW 247 0 min 0,0 UV-I -2,2 C -0,2 C 3,5 km/h (1 Bft)
01.03.2013 04:50 -0,1 C 7,8 C 0,5 C -0,1 C -0,1 C 0,0 C 86 % 93 % 0 % 1022,2 hPa 0,0 l/m 3,2 km/h (1 Bft) SW 225 0 min 0,0 UV-I -2,2 C -0,1 C 6,9 km/h (2 Bft)
01.03.2013 04:55 -0,2 C 7,8 C 0,4 C -0,4 C -0,7 C 0,0 C 86 % 93 % 0 % 1022,2 hPa 0,0 l/m 4,2 km/h (1 Bft) W-SW 247 0 min 0,0 UV-I -2,3 C -0,7 C 6,8 km/h (2 Bft)
01.03.2013 05:00 -0,1 C 7,8 C 0,4 C -0,5 C -1,2 C 0,0 C 86 % 93 % 0 % 1022,4 hPa 0,0 l/m 5,0 km/h (1 Bft) W-SW 247 0 min 0,0 UV-I -2,2 C -3,0 C 6,1 km/h (2 Bft)
01.03.2013 05:05 -0,3 C 7,8 C 0,4 C -0,8 C -1,8 C 0,0 C 86 % 93 % 0 % 1022,4 hPa 0,0 l/m 6,1 km/h (2 Bft) W-SW 247 0 min 0,0 UV-I -2,3 C -4,1 C 7,7 km/h (2 Bft)
01.03.2013 05:10 -0,3 C 7,8 C 0,4 C -0,8 C -1,9 C 0,0 C 86 % 93 % 0 % 1022,4 hPa 0,0 l/m 6,4 km/h (2 Bft) SW 225 0 min 0,0 UV-I -2,3 C -4,4 C 9,2 km/h (2 Bft)
01.03.2013 05:15 -0,3 C 8,0 C 0,3 C -0,8 C -1,8 C 0,0 C 87 % 93 % 0 % 1022,4 hPa 0,0 l/m 6,0 km/h (2 Bft) W-SW 247 0 min 0,0 UV-I -2,2 C -4,1 C 8,5 km/h (2 Bft)
01.03.2013 05:20 -0,5 C 8,0 C 0,3 C -0,8 C -1,5 C 0,0 C 87 % 93 % 0 % 1022,4 hPa 0,0 l/m 5,3 km/h (1 Bft) W 270 0 min 0,0 UV-I -2,4 C -3,4 C 3,1 km/h (1 Bft)
01.03.2013 05:25 -0,6 C 8,0 C 0,3 C -0,8 C -1,3 C 0,0 C 87 % 93 % 0 % 1022,4 hPa 0,0 l/m 4,7 km/h (1 Bft) SW 225 0 min 0,0 UV-I -2,5 C -2,9 C 8,9 km/h (2 Bft)
01.03.2013 05:30 -0,5 C 8,0 C 0,3 C -0,9 C -1,6 C 0,0 C 88 % 93 % 0 % 1022,4 hPa 0,0 l/m 5,0 km/h (1 Bft) W-SW 247 0 min 0,0 UV-I -2,2 C -3,4 C 8,2 km/h (2 Bft)
01.03.2013 05:35 -0,7 C 8,1 C 0,3 C -1,2 C -2,2 C 0,0 C 88 % 93 % 0 % 1022,4 hPa 0,0 l/m 6,4 km/h (2 Bft) SW 225 0 min 0,0 UV-I -2,4 C -4,7 C 10,0 km/h (2 Bft)
01.03.2013 05:40 -0,7 C 8,1 C 0,3 C -1,2 C -2,2 C 0,0 C 88 % 93 % 0 % 1021,6 hPa 0,0 l/m 6,3 km/h (2 Bft) S 180 0 min 0,0 UV-I -2,4 C -4,7 C 6,1 km/h (2 Bft)
01.03.2013 05:45 -0,8 C 8,1 C 0,3 C -1,2 C -2,1 C 0,0 C 88 % 93 % 0 % 1021,6 hPa 0,0 l/m 6,1 km/h (2 Bft) W-SW 247 0 min 0,0 UV-I -2,5 C -4,5 C 8,0 km/h (2 Bft)
01.03.2013 05:50 -0,8 C 8,1 C 0,3 C -1,3 C -2,2 C 0,0 C 88 % 93 % 0 % 1021,6 hPa 0,0 l/m 6,0 km/h (2 Bft) W 270 0 min 0,0 UV-I -2,5 C -4,6 C 5,5 km/h (1 Bft)
01.03.2013 05:55 -0,7 C 8,1 C 0,2 C -1,0 C -1,7 C 0,0 C 89 % 93 % 0 % 1021,6 hPa 0,0 l/m 4,8 km/h (1 Bft) W-SW 247 0 min 0,0 UV-I -2,3 C -3,4 C 6,1 km/h (2 Bft)
01.03.2013 06:00 -0,9 C 8,1 C 0,1 C -1,1 C -1,6 C 0,0 C 89 % 93 % 0 % 1021,8 hPa 0,0 l/m 4,7 km/h (1 Bft) SW 225 0 min 0,0 UV-I -2,5 C -3,3 C 8,0 km/h (2 Bft)
01.03.2013 06:05 -0,9 C 8,1 C 0,1 C -1,2 C -1,8 C 0,0 C 89 % 93 % 0 % 1021,8 hPa 0,0 l/m 5,1 km/h (1 Bft) W-SW 247 0 min 0,0 UV-I -2,5 C -3,7 C 4,0 km/h (1 Bft)
01.03.2013 06:10 -0,9 C 8,1 C 0,1 C -1,0 C -1,2 C 0,0 C 89 % 93 % 0 % 1021,8 hPa 0,0 l/m 4,0 km/h (1 Bft) W-SW 247 0 min 0,0 UV-I -2,5 C -1,2 C 4,8 km/h (1 Bft)
01.03.2013 06:15 -0,9 C 8,1 C 0,1 C -0,9 C -1,0 C 0,0 C 90 % 93 % 0 % 1021,8 hPa 0,0 l/m 3,7 km/h (1 Bft) NW 315 0 min 0,0 UV-I -2,3 C -1,0 C 6,3 km/h (2 Bft)
01.03.2013 06:20 -0,9 C 8,1 C 0,1 C -1,1 C -1,6 C 0,0 C 90 % 93 % 0 % 1021,6 hPa 0,0 l/m 4,7 km/h (1 Bft) S 180 0 min 0,0 UV-I -2,3 C -3,3 C 4,0 km/h (1 Bft)
01.03.2013 06:25 -0,9 C 8,1 C 0,1 C -1,1 C -1,5 C 0,0 C 90 % 93 % 0 % 1021,6 hPa 0,0 l/m 4,5 km/h (1 Bft) W-SW 247 0 min 0,0 UV-I -2,3 C -1,5 C 6,0 km/h (2 Bft)
01.03.2013 06:30 -0,9 C 8,1 C 0,1 C -1,0 C -1,1 C 0,0 C 90 % 93 % 0 % 1021,6 hPa 0,0 l/m 3,9 km/h (1 Bft) W-SW 247 0 min 0,0 UV-I -2,3 C -1,1 C 4,8 km/h (1 Bft)
01.03.2013 06:35 -0,9 C 8,1 C 0,1 C -1,0 C -1,2 C 0,0 C 90 % 93 % 0 % 1021,6 hPa 0,0 l/m 4,0 km/h (1 Bft) SW 225 0 min 0,0 UV-I -2,3 C -1,2 C 6,3 km/h (2 Bft)
01.03.2013 06:40 -0,9 C 8,1 C 0,1 C -1,2 C -1,7 C 0,0 C 90 % 93 % 0 % 1021,5 hPa 0,0 l/m 4,8 km/h (1 Bft) SW 225 0 min 0,0 UV-I -2,3 C -3,4 C 4,8 km/h (1 Bft)
01.03.2013 06:45 -0,9 C 8,1 C 0,0 C -1,4 C -2,4 C 0,0 C 90 % 93 % 0 % 1021,5 hPa 0,0 l/m 6,8 km/h (2 Bft) SW 225 0 min 0,0 UV-I -2,3 C -5,1 C 9,0 km/h (2 Bft)
01.03.2013 06:50 -0,9 C 8,1 C 0,1 C -1,2 C -2,9 C 0,0 C 90 % 93 % 0 % 1021,5 hPa 0,0 l/m 7,7 km/h (2 Bft) SW 225 0 min 0,0 UV-I -2,3 C -6,0 C 10,8 km/h (2 Bft)
01.03.2013 06:55 -0,9 C 8,1 C 0,0 C -1,6 C -2,9 C 0,0 C 90 % 93 % 0 % 1021,5 hPa 0,0 l/m 8,0 km/h (2 Bft) W-SW 247 0 min 0,0 UV-I -2,3 C -6,1 C 14,0 km/h (3 Bft)
01.03.2013 07:00 -1,1 C 8,1 C 0,0 C -1,6 C -2,7 C 0,0 C 90 % 93 % 0 % 1021,7 hPa 0,0 l/m 7,4 km/h (2 Bft) W-SW 247 0 min 0,0 UV-I -2,5 C -5,7 C 7,7 km/h (2 Bft)
01.03.2013 07:05 -1,1 C 8,1 C 0,0 C -1,5 C -2,3 C 0,0 C 90 % 93 % 0 % 1021,7 hPa 0,0 l/m 6,4 km/h (2 Bft) SW 225 0 min 0,0 UV-I -2,5 C -4,8 C 6,9 km/h (2 Bft)
01.03.2013 07:10 -0,9 C 8,1 C 0,0 C -1,3 C -2,1 C 0,0 C 90 % 93 % 0 % 1021,7 hPa 0,0 l/m 5,8 km/h (2 Bft) W 270 0 min 0,0 UV-I -2,3 C -4,4 C 6,0 km/h (2 Bft)
01.03.2013 07:15 -0,9 C 8,1 C 0,0 C -1,2 C -1,8 C 0,0 C 90 % 93 % 0 % 1021,7 hPa 0,0 l/m 5,1 km/h (1 Bft) W-NW 292 0 min 0,0 UV-I -2,3 C -3,7 C 6,4 km/h (2 Bft)
01.03.2013 07:20 -0,9 C 8,1 C 0,0 C -1,2 C -1,8 C 0,0 C 90 % 93 % 0 % 1021,7 hPa 0,0 l/m 5,1 km/h (1 Bft) W-NW 292 0 min 0,0 UV-I -2,3 C -3,7 C 7,4 km/h (2 Bft)
01.03.2013 07:25 -0,9 C 8,1 C 0,1 C -1,3 C -2,1 C 0,0 C 90 % 94 % 0 % 1021,7 hPa 0,0 l/m 5,8 km/h (2 Bft) W-NW 292 0 min 0,0 UV-I -2,3 C -4,4 C 9,7 km/h (2 Bft)
01.03.2013 07:30 -0,9 C 8,1 C 0,1 C -1,4 C -2,3 C 0,0 C 90 % 94 % 0 % 1021,7 hPa 0,0 l/m 6,3 km/h (2 Bft) W-NW 292 0 min 0,0 UV-I -2,3 C -4,8 C 11,4 km/h (2 Bft)
01.03.2013 07:35 -0,9 C 8,1 C 0,1 C -1,5 C -2,7 C 0,0 C 90 % 93 % 0 % 1021,7 hPa 0,0 l/m 7,4 km/h (2 Bft) W-NW 292 0 min 0,0 UV-I -2,3 C -5,7 C 15,1 km/h (3 Bft)
01.03.2013 07:40 -0,9 C 8,1 C 0,0 C -1,2 C -2,9 C 0,0 C 90 % 94 % 0 % 1021,8 hPa 0,0 l/m 8,2 km/h (2 Bft) W-NW 292 0 min 0,0 UV-I -2,3 C -6,2 C 8,0 km/h (2 Bft)
01.03.2013 07:45 -0,9 C 8,1 C 0,0 C -1,5 C -2,6 C 0,0 C 90 % 94 % 0 % 1021,8 hPa 0,0 l/m 7,1 km/h (2 Bft) W-NW 292 0 min 0,0 UV-I -2,3 C -5,5 C 7,4 km/h (2 Bft)
01.03.2013 07:50 -1,1 C 8,1 C 0,1 C -1,5 C -2,4 C 0,0 C 90 % 93 % 0 % 1021,8 hPa 0,0 l/m 6,6 km/h (2 Bft) W-NW 292 0 min 0,0 UV-I -2,5 C -5,0 C 5,8 km/h (2 Bft)
01.03.2013 07:55 -0,9 C 8,1 C 0,0 C -1,2 C -1,9 C 0,0 C 90 % 94 % 0 % 1021,8 hPa 0,0 l/m 5,3 km/h (1 Bft) W-NW 292 0 min 0,0 UV-I -2,3 C -3,9 C 9,2 km/h (2 Bft)
01.03.2013 08:00 -1,1 C 8,1 C 0,1 C -1,4 C -1,9 C 0,0 C 90 % 94 % 0 % 1021,9 hPa 0,0 l/m 5,5 km/h (1 Bft) W-NW 292 0 min 0,0 UV-I -2,5 C -4,0 C 9,5 km/h (2 Bft)
01.03.2013 08:05 -0,9 C 8,1 C 0,0 C -1,2 C -1,7 C 0,0 C 90 % 94 % 0 % 1021,9 hPa 0,0 l/m 5,1 km/h (1 Bft) W-NW 292 0 min 0,0 UV-I -2,3 C -3,6 C 6,3 km/h (2 Bft)
01.03.2013 08:10 -0,9 C 8,1 C 0,0 C -1,1 C -1,6 C 0,0 C 91 % 93 % 0 % 1021,9 hPa 0,0 l/m 5,0 km/h (1 Bft) W-NW 292 0 min 0,0 UV-I -2,2 C -3,4 C 4,7 km/h (1 Bft)
01.03.2013 08:15 -0,9 C 8,1 C 0,1 C -1,0 C -1,1 C 0,0 C 91 % 94 % 0 % 1021,9 hPa 0,0 l/m 4,0 km/h (1 Bft) W-NW 292 0 min 0,0 UV-I -2,2 C -1,1 C 6,0 km/h (2 Bft)
01.03.2013 08:20 -0,9 C 8,1 C 0,1 C -0,8 C -0,8 C 0,1 C 91 % 94 % 3 % 1021,9 hPa 0,0 l/m 3,7 km/h (1 Bft) W-NW 292 0 min 0,0 UV-I -2,2 C -0,8 C 3,2 km/h (1 Bft)
01.03.2013 08:25 -0,9 C 8,1 C 0,1 C -1,2 C -1,7 C 0,0 C 91 % 93 % 0 % 1021,9 hPa 0,0 l/m 5,5 km/h (1 Bft) W-NW 292 0 min 0,0 UV-I -2,2 C -3,8 C 5,8 km/h (2 Bft)
01.03.2013 08:30 -0,9 C 8,1 C 0,3 C -1,1 C -1,6 C 0,0 C 91 % 93 % 0 % 1021,9 hPa 0,0 l/m 5,3 km/h (1 Bft) W-NW 292 0 min 0,0 UV-I -2,2 C -3,6 C 4,8 km/h (1 Bft)
01.03.2013 08:35 -1,0 C 8,1 C 0,3 C -1,3 C -1,8 C 0,0 C 91 % 94 % 0 % 1021,9 hPa 0,0 l/m 5,8 km/h (2 Bft) W-NW 292 0 min 0,0 UV-I -2,3 C -4,0 C 5,8 km/h (2 Bft)
01.03.2013 08:40 -1,0 C 8,1 C 0,1 C -1,3 C -1,8 C 0,0 C 91 % 94 % 0 % 1021,9 hPa 0,0 l/m 6,1 km/h (2 Bft) W-NW 292 0 min 0,0 UV-I -2,3 C -4,1 C 5,3 km/h (1 Bft)
01.03.2013 08:45 -1,0 C 8,1 C 0,2 C -1,4 C -2,2 C 0,0 C 91 % 93 % 0 % 1021,9 hPa 0,0 l/m 7,1 km/h (2 Bft) W-NW 292 0 min 0,0 UV-I -2,3 C -5,0 C 7,9 km/h (2 Bft)
01.03.2013 08:50 -1,0 C 8,1 C 0,2 C -1,3 C -2,0 C 0,0 C 91 % 93 % 0 % 1021,9 hPa 0,0 l/m 6,6 km/h (2 Bft) W-NW 292 0 min 0,0 UV-I -2,3 C -4,6 C 5,5 km/h (1 Bft)
01.03.2013 08:55 -0,9 C 8,1 C 0,2 C -1,1 C -1,6 C 0,0 C 91 % 93 % 0 % 1021,9 hPa 0,0 l/m 5,8 km/h (2 Bft) W-NW 292 0 min 0,0 UV-I -2,2 C -3,8 C 7,1 km/h (2 Bft)
01.03.2013 09:00 -0,9 C 8,1 C 0,2 C -1,1 C -1,6 C 0,0 C 91 % 93 % 0 % 1022,2 hPa 0,0 l/m 5,6 km/h (1 Bft) W-NW 292 0 min 0,0 UV-I -2,2 C -3,7 C 9,7 km/h (2 Bft)
01.03.2013 09:05 -0,9 C 8,1 C 0,3 C -1,1 C -1,6 C 0,0 C 91 % 93 % 0 % 1022,2 hPa 0,0 l/m 5,8 km/h (2 Bft) W-NW 292 0 min 0,0 UV-I -2,2 C -3,8 C 8,4 km/h (2 Bft)
01.03.2013 09:10 -0,9 C 8,1 C 0,4 C -1,2 C -1,8 C 0,0 C 91 % 93 % 0 % 1022,2 hPa 0,0 l/m 6,1 km/h (2 Bft) W-NW 292 0 min 0,0 UV-I -2,2 C -4,1 C 6,9 km/h (2 Bft)
01.03.2013 09:15 -0,9 C 8,1 C 0,5 C -1,0 C -1,3 C 0,0 C 91 % 93 % 0 % 1022,2 hPa 0,0 l/m 5,3 km/h (1 Bft) W-NW 292 0 min 0,0 UV-I -2,2 C -3,2 C 5,5 km/h (1 Bft)
01.03.2013 09:20 -0,9 C 8,1 C 0,4 C -1,0 C -1,2 C 0,0 C 91 % 93 % 0 % 1022,4 hPa 0,0 l/m 5,1 km/h (1 Bft) W-NW 292 0 min 0,0 UV-I -2,2 C -3,0 C 7,7 km/h (2 Bft)
01.03.2013 09:25 -0,9 C 8,1 C 0,5 C -1,1 C -1,6 C 0,0 C 91 % 93 % 0 % 1022,4 hPa 0,0 l/m 6,3 km/h (2 Bft) W-NW 292 0 min 0,0 UV-I -2,2 C -4,0 C 6,3 km/h (2 Bft)
01.03.2013 09:30 -0,9 C 8,1 C 0,5 C -1,1 C -1,6 C 0,0 C 91 % 93 % 0 % 1022,4 hPa 0,0 l/m 6,6 km/h (2 Bft) W-NW 292 0 min 0,0 UV-I -2,2 C -4,1 C 10,1 km/h (2 Bft)
01.03.2013 09:35 -0,8 C 8,1 C 0,7 C -1,0 C -1,4 C 0,0 C 91 % 93 % 0 % 1022,4 hPa 0,0 l/m 6,3 km/h (2 Bft) W-NW 292 0 min 0,0 UV-I -2,1 C -3,8 C 10,5 km/h (2 Bft)
01.03.2013 09:40 -0,8 C 8,1 C 0,6 C -1,1 C -1,6 C 0,0 C 91 % 93 % 0 % 1022,2 hPa 0,0 l/m 6,6 km/h (2 Bft) W-NW 292 0 min 0,0 UV-I -2,1 C -4,1 C 9,3 km/h (2 Bft)
01.03.2013 09:45 -0,8 C 8,1 C 0,6 C -1,0 C -1,5 C 0,0 C 91 % 93 % 0 % 1022,2 hPa 0,0 l/m 6,8 km/h (2 Bft) W-NW 292 0 min 0,0 UV-I -2,1 C -4,1 C 7,1 km/h (2 Bft)
01.03.2013 09:50 -0,8 C 8,1 C 0,7 C -0,9 C -1,2 C 0,0 C 91 % 93 % 0 % 1022,2 hPa 0,0 l/m 5,6 km/h (1 Bft) W-NW 292 0 min 0,0 UV-I -2,1 C -3,2 C 6,3 km/h (2 Bft)
01.03.2013 09:55 -0,8 C 8,1 C 0,7 C -0,8 C -0,8 C 0,0 C 91 % 93 % 0 % 1022,2 hPa 0,0 l/m 4,7 km/h (1 Bft) W-NW 292 0 min 0,0 UV-I -2,1 C -2,3 C 6,0 km/h (2 Bft)
01.03.2013 10:00 -0,7 C 8,1 C 0,7 C -0,8 C -0,9 C 0,0 C 91 % 93 % 0 % 1022,2 hPa 0,0 l/m 5,1 km/h (1 Bft) W-NW 292 0 min 0,0 UV-I -2,0 C -2,7 C 8,7 km/h (2 Bft)
01.03.2013 10:05 -0,7 C 8,1 C 0,7 C -0,7 C -0,8 C 0,0 C 92 % 93 % 0 % 1022,2 hPa 0,0 l/m 4,8 km/h (1 Bft) W-NW 292 0 min 0,0 UV-I -1,8 C -2,4 C 3,5 km/h (1 Bft)
01.03.2013 10:10 -0,7 C 8,1 C 0,7 C -0,5 C -0,5 C 0,2 C 92 % 93 % 5 % 1022,2 hPa 0,0 l/m 4,2 km/h (1 Bft) W-NW 292 0 min 0,0 UV-I -1,8 C -0,5 C 4,8 km/h (1 Bft)
01.03.2013 10:15 -0,7 C 8,1 C 0,7 C -0,6 C -0,6 C 0,1 C 92 % 93 % 3 % 1022,2 hPa 0,0 l/m 4,5 km/h (1 Bft) W-NW 292 0 min 0,0 UV-I -1,8 C -0,6 C 4,3 km/h (1 Bft)
01.03.2013 10:20 -0,5 C 8,1 C 0,8 C -0,5 C -0,6 C 0,0 C 92 % 93 % 0 % 1022,2 hPa 0,0 l/m 4,8 km/h (1 Bft) W-NW 292 0 min 0,0 UV-I -1,6 C -2,2 C 6,0 km/h (2 Bft)
01.03.2013 10:25 -0,5 C 8,1 C 0,8 C -0,4 C -0,4 C 0,1 C 92 % 93 % 3 % 1022,2 hPa 0,0 l/m 4,7 km/h (1 Bft) W-NW 292 0 min 0,0 UV-I -1,6 C -1,9 C 3,7 km/h (1 Bft)
01.03.2013 10:30 -0,5 C 8,1 C 0,8 C -0,5 C -0,6 C 0,0 C 92 % 93 % 0 % 1022,2 hPa 0,0 l/m 4,7 km/h (1 Bft) W-NW 292 0 min 0,0 UV-I -1,6 C -2,1 C 4,5 km/h (1 Bft)
01.03.2013 10:35 -0,5 C 8,1 C 0,9 C -0,3 C -0,3 C 0,2 C 92 % 93 % 5 % 1022,2 hPa 0,0 l/m 4,5 km/h (1 Bft) W-NW 292 0 min 0,0 UV-I -1,6 C -0,3 C 4,3 km/h (1 Bft)
01.03.2013 10:40 -0,5 C 8,1 C 1,1 C -0,5 C -0,6 C 0,0 C 92 % 93 % 0 % 1022,2 hPa 0,0 l/m 5,3 km/h (1 Bft) W 270 0 min 0,1 UV-I -1,6 C -2,4 C 8,0 km/h (2 Bft)
01.03.2013 10:45 -0,5 C 8,1 C 1,0 C -0,6 C -0,9 C 0,0 C 92 % 93 % 0 % 1022,2 hPa 0,0 l/m 6,3 km/h (2 Bft) W 270 0 min 0,1 UV-I -1,6 C -3,2 C 6,9 km/h (2 Bft)
01.03.2013 10:50 -0,5 C 8,1 C 1,2 C -0,6 C -0,9 C 0,0 C 92 % 94 % 0 % 1022,2 hPa 0,0 l/m 6,6 km/h (2 Bft) W 270 0 min 0,1 UV-I -1,6 C -3,3 C 8,7 km/h (2 Bft)
01.03.2013 10:55 -0,5 C 8,1 C 1,2 C -0,6 C -0,9 C 0,0 C 91 % 94 % 0 % 1022,2 hPa 0,0 l/m 6,8 km/h (2 Bft) W-SW 247 0 min 0,1 UV-I -1,8 C -3,4 C 10,6 km/h (2 Bft)
01.03.2013 11:00 -0,4 C 8,1 C 1,2 C -0,4 C -0,5 C 0,0 C 91 % 94 % 0 % 1022,9 hPa 0,0 l/m 6,1 km/h (2 Bft) SW 225 0 min 0,2 UV-I -1,7 C -2,6 C 5,6 km/h (1 Bft)
01.03.2013 11:05 -0,3 C 8,0 C 1,2 C -0,3 C -0,4 C 0,0 C 91 % 94 % 0 % 1022,9 hPa 0,0 l/m 6,3 km/h (2 Bft) SW 225 0 min 0,2 UV-I -1,6 C -2,6 C 7,9 km/h (2 Bft)
01.03.2013 11:10 -0,3 C 8,0 C 1,4 C -0,3 C -0,4 C 0,0 C 91 % 93 % 0 % 1022,9 hPa 0,0 l/m 6,8 km/h (2 Bft) SW 225 0 min 0,2 UV-I -1,6 C -2,8 C 12,2 km/h (2 Bft)
01.03.2013 11:15 -0,3 C 8,0 C 1,5 C -0,4 C -0,6 C 0,0 C 91 % 93 % 0 % 1022,9 hPa 0,7 l/m 7,2 km/h (2 Bft) W-SW 247 0 min 0,3 UV-I -1,6 C -3,2 C 9,5 km/h (2 Bft)
01.03.2013 11:20 -0,3 C 8,0 C 1,5 C -0,3 C -0,4 C 0,0 C 91 % 93 % 0 % 1022,6 hPa 0,0 l/m 6,8 km/h (2 Bft) SW 225 0 min 0,2 UV-I -1,6 C -2,8 C 6,0 km/h (2 Bft)
01.03.2013 11:25 -0,1 C 8,0 C 1,5 C -0,1 C -0,1 C 0,0 C 91 % 93 % 0 % 1022,6 hPa 0,0 l/m 6,1 km/h (2 Bft) W-SW 247 0 min 0,2 UV-I -1,4 C -2,2 C 8,7 km/h (2 Bft)
01.03.2013 11:30 -0,1 C 8,0 C 1,6 C 0,3 C 0,3 C 0,4 C 91 % 93 % 11 % 1022,6 hPa 0,0 l/m 5,6 km/h (1 Bft) S 180 0 min 0,3 UV-I -1,4 C -1,5 C 6,6 km/h (2 Bft)
01.03.2013 11:35 -0,1 C 8,0 C 1,6 C 0,5 C 0,5 C 0,6 C 91 % 93 % 16 % 1022,6 hPa 0,0 l/m 5,1 km/h (1 Bft) W-SW 247 0 min 0,2 UV-I -1,4 C -1,1 C 6,3 km/h (2 Bft)
01.03.2013 11:40 -0,1 C 8,0 C 1,6 C 0,4 C 0,4 C 0,5 C 91 % 93 % 13 % 1022,6 hPa 0,0 l/m 5,3 km/h (1 Bft) W-SW 247 0 min 0,1 UV-I -1,4 C -1,3 C 7,6 km/h (2 Bft)
01.03.2013 11:45 -0,1 C 8,0 C 1,5 C 0,3 C 0,3 C 0,4 C 91 % 93 % 11 % 1022,6 hPa 0,0 l/m 5,6 km/h (1 Bft) W-SW 247 0 min 0,1 UV-I -1,4 C -1,5 C 9,2 km/h (2 Bft)
01.03.2013 11:50 -0,1 C 8,0 C 1,6 C 0,4 C 0,4 C 0,5 C 91 % 93 % 13 % 1022,6 hPa 0,0 l/m 5,3 km/h (1 Bft) W 270 0 min 0,1 UV-I -1,4 C -1,3 C 7,1 km/h (2 Bft)
01.03.2013 11:55 0,0 C 8,0 C 1,6 C 0,4 C 0,4 C 0,4 C 91 % 93 % 11 % 1022,6 hPa 0,0 l/m 5,8 km/h (2 Bft) W-SW 247 0 min 0,2 UV-I -1,3 C -1,5 C 4,0 km/h (1 Bft)
01.03.2013 12:00 0,1 C 8,0 C 1,6 C 0,6 C 0,6 C 0,5 C 90 % 93 % 13 % 1022,9 hPa 0,0 l/m 5,8 km/h (2 Bft) SW 225 0 min 0,2 UV-I -1,3 C -1,3 C 7,7 km/h (2 Bft)
01.03.2013 12:05 0,1 C 8,0 C 1,6 C 0,8 C 0,8 C 0,7 C 90 % 93 % 18 % 1022,9 hPa 0,0 l/m 5,3 km/h (1 Bft) SW 225 0 min 0,2 UV-I -1,3 C -0,8 C 5,6 km/h (1 Bft)
01.03.2013 12:10 0,2 C 8,0 C 1,6 C 0,7 C 0,7 C 0,5 C 90 % 93 % 13 % 1022,9 hPa 0,0 l/m 5,6 km/h (1 Bft) W-SW 247 0 min 0,2 UV-I -1,2 C -1,1 C 8,2 km/h (2 Bft)
01.03.2013 12:15 0,3 C 8,0 C 1,9 C 0,8 C 0,8 C 0,5 C 90 % 93 % 13 % 1022,9 hPa 0,0 l/m 6,1 km/h (2 Bft) W-SW 247 0 min 0,2 UV-I -1,1 C -1,1 C 8,5 km/h (2 Bft)
01.03.2013 12:20 0,4 C 8,0 C 1,9 C 1,2 C 1,2 C 0,8 C 89 % 93 % 21 % 1022,9 hPa 0,0 l/m 5,6 km/h (1 Bft) W-SW 247 0 min 0,3 UV-I -1,2 C -0,5 C 4,8 km/h (1 Bft)
01.03.2013 12:25 0,4 C 7,9 C 1,9 C 1,6 C 1,6 C 1,2 C 89 % 93 % 32 % 1022,9 hPa 0,0 l/m 5,0 km/h (1 Bft) W 270 0 min 0,2 UV-I -1,2 C 0,2 C 6,4 km/h (2 Bft)
01.03.2013 12:30 0,5 C 7,9 C 1,9 C 1,8 C 1,8 C 1,3 C 89 % 93 % 34 % 1022,9 hPa 0,0 l/m 4,5 km/h (1 Bft) W-SW 247 0 min 0,2 UV-I -1,1 C 1,8 C 4,3 km/h (1 Bft)
01.03.2013 12:35 0,6 C 7,9 C 1,9 C 1,6 C 1,6 C 1,0 C 89 % 93 % 26 % 1022,9 hPa 0,0 l/m 4,8 km/h (1 Bft) W 270 0 min 0,2 UV-I -1,0 C 0,3 C 4,8 km/h (1 Bft)
01.03.2013 12:40 0,6 C 7,9 C 1,9 C 1,8 C 1,8 C 1,2 C 89 % 93 % 32 % 1022,4 hPa 0,0 l/m 4,3 km/h (1 Bft) W-SW 247 0 min 0,1 UV-I -1,0 C 1,8 C 4,2 km/h (1 Bft)
01.03.2013 12:45 0,7 C 7,9 C 1,7 C 1,5 C 1,5 C 0,8 C 88 % 93 % 21 % 1022,4 hPa 0,0 l/m 4,7 km/h (1 Bft) W-SW 247 0 min 0,1 UV-I -1,1 C 0,2 C 3,1 km/h (1 Bft)
01.03.2013 12:50 0,7 C 7,9 C 1,7 C 1,6 C 1,6 C 0,9 C 88 % 93 % 24 % 1022,4 hPa 0,0 l/m 4,2 km/h (1 Bft) W 270 0 min 0,1 UV-I -1,1 C 1,6 C 2,6 km/h (1 Bft)
01.03.2013 12:55 0,7 C 7,9 C 1,7 C 1,8 C 1,8 C 1,1 C 88 % 93 % 29 % 1022,4 hPa 0,0 l/m 3,7 km/h (1 Bft) W-SW 247 0 min 0,0 UV-I -1,1 C 1,8 C 3,5 km/h (1 Bft)
01.03.2013 13:00 0,7 C 7,9 C 1,7 C 1,4 C 1,4 C 0,7 C 88 % 93 % 18 % 1022,2 hPa 0,0 l/m 4,3 km/h (1 Bft) S-SW 202 0 min 0,0 UV-I -1,1 C 1,4 C 6,0 km/h (2 Bft)
01.03.2013 13:05 0,7 C 7,9 C 1,9 C 1,5 C 1,5 C 0,8 C 88 % 93 % 21 % 1022,2 hPa 0,0 l/m 4,2 km/h (1 Bft) W 270 0 min 0,0 UV-I -1,1 C 1,5 C 4,2 km/h (1 Bft)
01.03.2013 13:10 0,7 C 7,9 C 1,9 C 1,8 C 1,8 C 1,1 C 88 % 93 % 29 % 1022,2 hPa 0,0 l/m 3,9 km/h (1 Bft) W-SW 247 0 min 0,1 UV-I -1,1 C 1,8 C 3,7 km/h (1 Bft)
01.03.2013 13:15 0,8 C 7,9 C 1,9 C 2,3 C 2,3 C 1,5 C 88 % 93 % 39 % 1022,2 hPa 0,0 l/m 3,4 km/h (1 Bft) W-SW 247 0 min 0,1 UV-I -1,0 C 2,3 C 3,1 km/h (1 Bft)
01.03.2013 13:20 0,8 C 7,9 C 1,9 C 2,4 C 2,4 C 1,6 C 88 % 93 % 42 % 1022,8 hPa 0,0 l/m 3,4 km/h (1 Bft) O-NO 67 0 min 0,1 UV-I -1,0 C 2,4 C 3,5 km/h (1 Bft)
01.03.2013 13:25 0,8 C 7,9 C 2,0 C 2,3 C 2,3 C 1,5 C 88 % 93 % 39 % 1022,8 hPa 0,0 l/m 3,5 km/h (1 Bft) SW 225 0 min 0,1 UV-I -1,0 C 2,3 C 3,1 km/h (1 Bft)
01.03.2013 13:30 0,9 C 7,9 C 2,0 C 2,3 C 2,3 C 1,4 C 87 % 93 % 37 % 1022,8 hPa 0,0 l/m 3,5 km/h (1 Bft) W-SW 247 0 min 0,1 UV-I -1,0 C 2,3 C 3,9 km/h (1 Bft)
01.03.2013 13:35 0,9 C 7,9 C 1,9 C 2,2 C 2,2 C 1,3 C 87 % 93 % 34 % 1022,8 hPa 0,0 l/m 3,7 km/h (1 Bft) SW 225 0 min 0,1 UV-I -1,0 C 2,2 C 4,2 km/h (1 Bft)
01.03.2013 13:40 1,0 C 7,8 C 1,9 C 2,1 C 2,1 C 1,1 C 88 % 93 % 29 % 1022,6 hPa 0,0 l/m 3,7 km/h (1 Bft) W-SW 247 0 min 0,0 UV-I -0,8 C 2,1 C 3,4 km/h (1 Bft)
01.03.2013 13:45 1,1 C 7,8 C 2,0 C 2,4 C 2,4 C 1,3 C 87 % 93 % 34 % 1022,6 hPa 0,0 l/m 3,4 km/h (1 Bft) W 270 0 min 0,1 UV-I -0,8 C 2,4 C 5,6 km/h (1 Bft)
01.03.2013 13:50 1,1 C 7,8 C 2,0 C 2,4 C 2,4 C 1,3 C 87 % 93 % 34 % 1022,6 hPa 0,0 l/m 3,4 km/h (1 Bft) W-SW 247 0 min 0,1 UV-I -0,8 C 2,4 C 7,7 km/h (2 Bft)
01.03.2013 13:55 1,1 C 7,8 C 1,9 C 2,3 C 2,3 C 1,2 C 87 % 93 % 32 % 1022,6 hPa 0,0 l/m 3,7 km/h (1 Bft) W-SW 247 0 min 0,1 UV-I -0,8 C 2,3 C 4,5 km/h (1 Bft)
01.03.2013 14:00 1,2 C 7,8 C 1,9 C 1,8 C 1,8 C 0,6 C 86 % 93 % 16 % 1022,5 hPa 0,0 l/m 4,3 km/h (1 Bft) W 270 0 min 0,0 UV-I -0,9 C 1,8 C 8,7 km/h (2 Bft)
01.03.2013 14:05 1,2 C 7,8 C 2,0 C 1,9 C 1,9 C 0,7 C 86 % 92 % 18 % 1022,5 hPa 0,0 l/m 4,2 km/h (1 Bft) W-SW 247 0 min 0,0 UV-I -0,9 C 1,9 C 4,7 km/h (1 Bft)
01.03.2013 14:10 1,2 C 7,7 C 2,0 C 1,8 C 1,8 C 0,6 C 85 % 92 % 16 % 1022,5 hPa 0,0 l/m 4,3 km/h (1 Bft) W-SW 247 0 min 0,1 UV-I -1,0 C 1,8 C 9,2 km/h (2 Bft)
01.03.2013 14:15 1,3 C 7,7 C 2,1 C 2,1 C 2,1 C 0,8 C 85 % 92 % 21 % 1022,5 hPa 0,0 l/m 4,3 km/h (1 Bft) W-SW 247 0 min 0,1 UV-I -0,9 C 2,1 C 7,4 km/h (2 Bft)
01.03.2013 14:20 1,3 C 7,7 C 2,0 C 2,1 C 2,1 C 0,8 C 85 % 92 % 21 % 1022,0 hPa 0,0 l/m 4,3 km/h (1 Bft) SW 225 0 min 0,1 UV-I -0,9 C 2,1 C 6,8 km/h (2 Bft)
01.03.2013 14:25 1,5 C 7,7 C 2,1 C 2,8 C 2,8 C 1,3 C 84 % 92 % 34 % 1022,0 hPa 0,0 l/m 3,4 km/h (1 Bft) SW 225 0 min 0,1 UV-I -0,9 C 2,8 C 6,4 km/h (2 Bft)
01.03.2013 14:30 1,5 C 7,7 C 2,2 C 3,0 C 3,0 C 1,5 C 84 % 93 % 39 % 1022,0 hPa 0,0 l/m 3,2 km/h (1 Bft) S-SO 157 0 min 0,2 UV-I -0,9 C 3,0 C 3,9 km/h (1 Bft)
01.03.2013 14:35 1,6 C 7,6 C 2,3 C 2,9 C 2,9 C 1,3 C 83 % 93 % 34 % 1022,0 hPa 0,0 l/m 3,9 km/h (1 Bft) W-SW 247 0 min 0,2 UV-I -1,0 C 2,9 C 8,2 km/h (2 Bft)
01.03.2013 14:40 1,7 C 7,6 C 2,3 C 2,6 C 2,6 C 0,9 C 82 % 92 % 24 % 1022,2 hPa 0,0 l/m 4,5 km/h (1 Bft) NW 315 0 min 0,2 UV-I -1,0 C 2,6 C 6,3 km/h (2 Bft)
01.03.2013 14:45 1,8 C 7,6 C 2,2 C 2,1 C 2,1 C 0,3 C 81 % 92 % 8 % 1022,2 hPa 0,0 l/m 5,3 km/h (1 Bft) O-SO 112 0 min 0,1 UV-I -1,1 C 0,7 C 11,4 km/h (2 Bft)
01.03.2013 14:50 1,9 C 7,6 C 2,1 C 2,3 C 2,3 C 0,4 C 81 % 92 % 11 % 1022,2 hPa 0,0 l/m 5,0 km/h (1 Bft) SW 225 0 min 0,1 UV-I -1,0 C 1,0 C 8,7 km/h (2 Bft)
01.03.2013 14:55 1,9 C 7,6 C 2,1 C 2,4 C 2,4 C 0,5 C 81 % 92 % 13 % 1022,2 hPa 0,0 l/m 4,3 km/h (1 Bft) O 90 0 min 0,1 UV-I -1,0 C 2,4 C 3,2 km/h (1 Bft)
01.03.2013 15:00 1,9 C 7,6 C 2,3 C 3,1 C 3,1 C 1,2 C 81 % 92 % 32 % 1022,2 hPa 0,0 l/m 3,4 km/h (1 Bft) W-SW 247 0 min 0,1 UV-I -1,0 C 3,1 C 2,6 km/h (1 Bft)
01.03.2013 15:05 1,9 C 7,6 C 2,1 C 3,2 C 3,2 C 1,3 C 81 % 92 % 34 % 1022,2 hPa 0,0 l/m 3,2 km/h (1 Bft) NW 315 0 min 0,1 UV-I -1,0 C 3,2 C 9,0 km/h (2 Bft)
01.03.2013 15:10 1,9 C 7,6 C 2,0 C 2,7 C 2,7 C 0,8 C 81 % 91 % 21 % 1022,2 hPa 0,0 l/m 3,7 km/h (1 Bft) SW 225 0 min 0,0 UV-I -1,0 C 2,7 C 6,8 km/h (2 Bft)
01.03.2013 15:15 1,9 C 7,6 C 2,1 C 2,6 C 2,6 C 0,7 C 81 % 92 % 18 % 1022,2 hPa 0,0 l/m 3,9 km/h (1 Bft) W-SW 247 0 min 0,0 UV-I -1,0 C 2,6 C 5,1 km/h (1 Bft)
01.03.2013 15:20 1,8 C 7,6 C 2,0 C 3,1 C 3,1 C 1,3 C 81 % 91 % 34 % 1022,8 hPa 0,0 l/m 2,9 km/h (1 Bft) SW 225 0 min 0,0 UV-I -1,1 C 3,1 C 0,0 km/h (0 Bft)
01.03.2013 15:25 1,8 C 7,6 C 2,1 C 3,3 C 3,3 C 1,5 C 81 % 91 % 39 % 1022,8 hPa 0,0 l/m 2,7 km/h (1 Bft) N-NW 337 0 min 0,0 UV-I -1,1 C 3,3 C 1,8 km/h (1 Bft)
01.03.2013 15:30 1,9 C 7,6 C 2,3 C 3,6 C 3,6 C 1,7 C 82 % 92 % 45 % 1022,8 hPa 0,0 l/m 2,4 km/h (1 Bft) N-NO 22 0 min 0,0 UV-I -0,8 C 3,6 C 0,0 km/h (0 Bft)
01.03.2013 15:35 2,0 C 7,6 C 2,4 C 4,0 C 4,0 C 2,0 C 82 % 92 % 53 % 1022,8 hPa 0,0 l/m 1,3 km/h (1 Bft) S 180 0 min 0,1 UV-I -0,7 C 4,0 C 11,3 km/h (2 Bft)
01.03.2013 15:40 2,0 C 7,6 C 2,5 C 4,1 C 4,1 C 2,1 C 81 % 91 % 55 % 1022,6 hPa 0,0 l/m 2,4 km/h (1 Bft) W 270 0 min 0,0 UV-I -0,9 C 4,1 C 6,8 km/h (2 Bft)
01.03.2013 15:45 2,0 C 7,6 C 2,4 C 3,3 C 3,3 C 1,3 C 80 % 91 % 34 % 1022,6 hPa 0,0 l/m 4,3 km/h (1 Bft) W 270 0 min 0,0 UV-I -1,1 C 3,3 C 6,9 km/h (2 Bft)
01.03.2013 15:50 2,1 C 7,6 C 2,3 C 3,4 C 3,4 C 1,3 C 80 % 91 % 34 % 1022,6 hPa 0,0 l/m 4,0 km/h (1 Bft) SW 225 0 min 0,0 UV-I -1,0 C 3,4 C 2,6 km/h (1 Bft)
01.03.2013 15:55 2,0 C 7,6 C 2,3 C 3,4 C 3,4 C 1,4 C 80 % 91 % 37 % 1022,6 hPa 0,0 l/m 3,4 km/h (1 Bft) W-SW 247 0 min 0,0 UV-I -1,1 C 3,4 C 4,3 km/h (1 Bft)
01.03.2013 16:00 2,0 C 7,6 C 2,3 C 3,7 C 3,7 C 1,7 C 81 % 91 % 45 % 1022,4 hPa 0,0 l/m 2,6 km/h (1 Bft) NW 315 0 min 0,0 UV-I -0,9 C 3,7 C 2,9 km/h (1 Bft)
01.03.2013 16:05 2,0 C 7,6 C 2,3 C 3,6 C 3,6 C 1,6 C 80 % 91 % 42 % 1022,4 hPa 0,0 l/m 2,6 km/h (1 Bft) SW 225 0 min 0,0 UV-I -1,1 C 3,6 C 3,2 km/h (1 Bft)
01.03.2013 16:10 2,0 C 7,6 C 2,2 C 3,5 C 3,5 C 1,5 C 80 % 91 % 39 % 1022,4 hPa 0,0 l/m 2,3 km/h (1 Bft) S 180 0 min 0,0 UV-I -1,1 C 3,5 C 1,9 km/h (1 Bft)
01.03.2013 16:15 2,0 C 7,6 C 2,2 C 2,7 C 2,7 C 0,7 C 79 % 91 % 18 % 1022,4 hPa 0,0 l/m 3,7 km/h (1 Bft) N-NW 337 0 min 0,0 UV-I -1,2 C 2,7 C 4,3 km/h (1 Bft)
01.03.2013 16:20 1,9 C 7,6 C 2,1 C 2,7 C 2,7 C 0,8 C 80 % 91 % 21 % 1022,1 hPa 0,0 l/m 3,7 km/h (1 Bft) SW 225 0 min 0,0 UV-I -1,2 C 2,7 C 8,4 km/h (2 Bft)
01.03.2013 16:25 1,9 C 7,6 C 2,1 C 2,9 C 2,9 C 1,0 C 79 % 91 % 26 % 1022,1 hPa 0,0 l/m 2,9 km/h (1 Bft) W-SW 247 0 min 0,0 UV-I -1,3 C 2,9 C 4,8 km/h (1 Bft)
01.03.2013 16:30 1,9 C 7,6 C 2,0 C 2,4 C 2,4 C 0,5 C 79 % 91 % 13 % 1022,1 hPa 0,0 l/m 3,5 km/h (1 Bft) W-SW 247 0 min 0,0 UV-I -1,3 C 2,4 C 7,6 km/h (2 Bft)
01.03.2013 16:35 1,8 C 7,6 C 1,9 C 2,0 C 2,0 C 0,2 C 80 % 91 % 5 % 1022,1 hPa 0,0 l/m 4,0 km/h (1 Bft) W-SW 247 0 min 0,0 UV-I -1,3 C 2,0 C 5,5 km/h (1 Bft)
01.03.2013 16:40 1,8 C 7,6 C 1,9 C 2,0 C 2,0 C 0,2 C 80 % 91 % 5 % 1022,2 hPa 0,0 l/m 3,7 km/h (1 Bft) SW 225 0 min 0,0 UV-I -1,3 C 2,0 C 5,0 km/h (1 Bft)
01.03.2013 16:45 1,7 C 7,6 C 1,7 C 1,9 C 1,9 C 0,2 C 80 % 91 % 5 % 1022,2 hPa 0,0 l/m 3,4 km/h (1 Bft) SW 225 0 min 0,0 UV-I -1,4 C 1,9 C 9,5 km/h (2 Bft)
01.03.2013 16:50 1,6 C 7,6 C 1,6 C 2,1 C 2,1 C 0,5 C 81 % 91 % 13 % 1022,2 hPa 0,0 l/m 2,9 km/h (1 Bft) O 90 0 min 0,0 UV-I -1,3 C 2,1 C 2,3 km/h (1 Bft)
01.03.2013 16:55 1,7 C 7,6 C 1,6 C 1,6 C 1,4 C 0,0 C 81 % 91 % 0 % 1022,2 hPa 0,0 l/m 3,7 km/h (1 Bft) W-SW 247 0 min 0,0 UV-I -1,2 C 1,4 C 4,2 km/h (1 Bft)
01.03.2013 17:00 1,6 C 7,6 C 1,5 C 1,5 C 1,4 C 0,0 C 81 % 91 % 0 % 1022,4 hPa 0,0 l/m 3,7 km/h (1 Bft) SW 225 0 min 0,0 UV-I -1,3 C 1,4 C 4,8 km/h (1 Bft)
01.03.2013 17:05 1,5 C 7,6 C 1,5 C 1,5 C 1,4 C 0,0 C 80 % 91 % 0 % 1022,4 hPa 0,0 l/m 3,7 km/h (1 Bft) S 180 0 min 0,0 UV-I -1,6 C 1,4 C 2,7 km/h (1 Bft)
01.03.2013 17:10 1,5 C 7,6 C 1,4 C 1,4 C 1,2 C 0,0 C 81 % 92 % 0 % 1022,4 hPa 0,0 l/m 3,9 km/h (1 Bft) W-SW 247 0 min 0,0 UV-I -1,4 C 1,2 C 5,0 km/h (1 Bft)
01.03.2013 17:15 1,4 C 7,7 C 1,4 C 1,4 C 1,4 C 0,0 C 81 % 92 % 0 % 1022,4 hPa 0,0 l/m 3,5 km/h (1 Bft) W-SW 247 0 min 0,0 UV-I -1,5 C 1,4 C 7,1 km/h (2 Bft)
01.03.2013 17:20 1,5 C 7,7 C 1,5 C 1,5 C 1,5 C 0,0 C 81 % 92 % 0 % 1022,4 hPa 0,0 l/m 3,2 km/h (1 Bft) SW 225 0 min 0,0 UV-I -1,4 C 1,5 C 3,9 km/h (1 Bft)
01.03.2013 17:25 1,5 C 7,7 C 1,5 C 1,8 C 1,8 C 0,3 C 81 % 92 % 8 % 1022,4 hPa 0,0 l/m 2,4 km/h (1 Bft) W-SW 247 0 min 0,0 UV-I -1,4 C 1,8 C 2,9 km/h (1 Bft)
01.03.2013 17:30 1,3 C 7,7 C 1,5 C 1,8 C 1,8 C 0,5 C 82 % 92 % 13 % 1022,4 hPa 0,0 l/m 2,4 km/h (1 Bft) W 270 5 min 0,0 UV-I -1,4 C 1,8 C 1,9 km/h (1 Bft)
01.03.2013 17:35 1,3 C 7,7 C 1,3 C 1,7 C 1,7 C 0,4 C 82 % 92 % 11 % 1022,4 hPa 0,0 l/m 2,3 km/h (1 Bft) S 180 5 min 0,0 UV-I -1,4 C 1,7 C 2,9 km/h (1 Bft)
01.03.2013 17:40 1,3 C 7,7 C 1,3 C 1,6 C 1,6 C 0,3 C 82 % 92 % 0 % 1022,4 hPa 0,0 l/m 1,9 km/h (1 Bft) W-SW 247 0 min 0,0 UV-I -1,4 C 1,6 C 3,7 km/h (1 Bft)
01.03.2013 17:45 1,2 C 7,7 C 1,3 C 1,6 C 1,6 C 0,4 C 82 % 92 % 0 % 1022,4 hPa 0,0 l/m 2,6 km/h (1 Bft) W 270 0 min 0,0 UV-I -1,5 C 1,6 C 2,7 km/h (1 Bft)
01.03.2013 17:50 1,3 C 7,7 C 1,3 C 1,6 C 1,6 C 0,3 C 82 % 92 % 0 % 1022,4 hPa 0,0 l/m 2,4 km/h (1 Bft) W 270 0 min 0,0 UV-I -1,4 C 1,6 C 0,0 km/h (0 Bft)
01.03.2013 17:55 1,3 C 7,7 C 1,2 C 1,6 C 1,6 C 0,3 C 82 % 92 % 0 % 1022,4 hPa 0,0 l/m 2,1 km/h (1 Bft) W-NW 292 0 min 0,0 UV-I -1,4 C 1,6 C 1,9 km/h (1 Bft)
01.03.2013 18:00 1,2 C 7,7 C 1,3 C 1,5 C 1,5 C 0,3 C 83 % 92 % 0 % 1022,6 hPa 0,0 l/m 2,1 km/h (1 Bft) W-SW 247 0 min 0,0 UV-I -1,4 C 1,5 C 2,6 km/h (1 Bft)
01.03.2013 18:05 1,1 C 7,7 C 1,2 C 1,5 C 1,5 C 0,4 C 83 % 92 % 0 % 1022,6 hPa 0,0 l/m 1,3 km/h (1 Bft) W-SW 247 0 min 0,0 UV-I -1,5 C 1,5 C 4,0 km/h (1 Bft)
01.03.2013 18:10 1,1 C 7,7 C 1,3 C 1,4 C 1,4 C 0,3 C 83 % 92 % 0 % 1022,6 hPa 0,0 l/m 1,6 km/h (1 Bft) W-SW 247 0 min 0,0 UV-I -1,5 C 1,4 C 2,9 km/h (1 Bft)
01.03.2013 18:15 1,1 C 7,7 C 1,2 C 1,4 C 1,4 C 0,3 C 83 % 92 % 0 % 1022,6 hPa 0,0 l/m 1,4 km/h (1 Bft) W 270 0 min 0,0 UV-I -1,5 C 1,4 C 1,8 km/h (1 Bft)
01.03.2013 18:20 1,1 C 7,7 C 1,1 C 1,3 C 1,3 C 0,2 C 83 % 92 % 0 % 1022,7 hPa 0,0 l/m 1,3 km/h (1 Bft) W-SW 247 0 min 0,0 UV-I -1,5 C 1,3 C 1,9 km/h (1 Bft)
01.03.2013 18:25 1,1 C 7,7 C 1,0 C 1,3 C 1,3 C 0,2 C 83 % 92 % 0 % 1022,7 hPa 0,0 l/m 2,1 km/h (1 Bft) W-SW 247 0 min 0,0 UV-I -1,5 C 1,3 C 2,9 km/h (1 Bft)
01.03.2013 18:30 1,1 C 7,7 C 1,1 C 1,1 C 1,1 C 0,0 C 83 % 93 % 0 % 1022,7 hPa 0,0 l/m 2,7 km/h (1 Bft) W-SW 247 0 min 0,0 UV-I -1,5 C 1,1 C 1,6 km/h (1 Bft)
01.03.2013 18:35 1,1 C 7,7 C 1,1 C 1,0 C 0,9 C 0,0 C 83 % 93 % 0 % 1022,7 hPa 0,0 l/m 2,9 km/h (1 Bft) W-SW 247 0 min 0,0 UV-I -1,5 C 0,9 C 5,3 km/h (1 Bft)
01.03.2013 18:40 1,1 C 7,7 C 0,9 C 1,0 C 0,9 C 0,0 C 83 % 93 % 0 % 1023,4 hPa 0,0 l/m 2,9 km/h (1 Bft) W-SW 247 0 min 0,0 UV-I -1,5 C 0,9 C 2,9 km/h (1 Bft)
01.03.2013 18:45 0,9 C 7,7 C 0,9 C 0,8 C 0,7 C 0,0 C 83 % 93 % 0 % 1023,4 hPa 0,0 l/m 2,9 km/h (1 Bft) W-SW 247 0 min 0,0 UV-I -1,7 C 0,7 C 0,0 km/h (0 Bft)
01.03.2013 18:50 0,9 C 7,7 C 0,9 C 1,0 C 1,0 C 0,1 C 83 % 93 % 0 % 1023,4 hPa 0,0 l/m 1,8 km/h (1 Bft) W-SW 247 0 min 0,0 UV-I -1,7 C 1,0 C 1,6 km/h (1 Bft)
01.03.2013 18:55 0,8 C 7,7 C 0,8 C 0,9 C 0,9 C 0,1 C 83 % 93 % 0 % 1023,4 hPa 0,0 l/m 1,8 km/h (1 Bft) W-SW 247 0 min 0,0 UV-I -1,8 C 0,9 C 2,3 km/h (1 Bft)
01.03.2013 19:00 0,9 C 7,7 C 0,8 C 0,9 C 0,9 C 0,0 C 83 % 93 % 0 % 1023,4 hPa 0,0 l/m 1,8 km/h (1 Bft) W-SW 247 0 min 0,0 UV-I -1,7 C 0,9 C 0,0 km/h (0 Bft)
01.03.2013 19:05 0,8 C 7,7 C 0,7 C 0,8 C 0,8 C 0,0 C 84 % 93 % 0 % 1023,4 hPa 0,0 l/m 1,3 km/h (1 Bft) W-SW 247 0 min 0,0 UV-I -1,6 C 0,8 C 2,4 km/h (1 Bft)
01.03.2013 19:10 0,7 C 7,7 C 0,7 C 0,8 C 0,8 C 0,1 C 84 % 93 % 0 % 1023,4 hPa 0,0 l/m 1,3 km/h (1 Bft) W-SW 247 0 min 0,0 UV-I -1,7 C 0,8 C 1,8 km/h (1 Bft)
01.03.2013 19:15 0,7 C 7,7 C 0,6 C 0,8 C 0,8 C 0,1 C 84 % 93 % 0 % 1023,4 hPa 0,0 l/m 1,1 km/h (1 Bft) W-SW 247 0 min 0,0 UV-I -1,7 C 0,8 C 0,0 km/h (0 Bft)
01.03.2013 19:20 0,7 C 7,7 C 0,7 C 0,8 C 0,8 C 0,1 C 84 % 93 % 0 % 1023,4 hPa 0,0 l/m 0,8 km/h (0 Bft) W-SW 247 0 min 0,0 UV-I -1,7 C 0,8 C 3,7 km/h (1 Bft)
01.03.2013 19:25 0,6 C 7,7 C 0,6 C 0,8 C 0,8 C 0,2 C 84 % 93 % 0 % 1023,4 hPa 0,0 l/m 1,8 km/h (1 Bft) W-SW 247 0 min 0,0 UV-I -1,8 C 0,8 C 1,9 km/h (1 Bft)
01.03.2013 19:30 0,7 C 7,7 C 0,7 C 0,8 C 0,8 C 0,1 C 84 % 93 % 0 % 1023,4 hPa 0,0 l/m 2,4 km/h (1 Bft) W-SW 247 0 min 0,0 UV-I -1,7 C 0,8 C 2,3 km/h (1 Bft)
01.03.2013 19:35 0,6 C 7,7 C 0,5 C 0,6 C 0,6 C 0,0 C 84 % 93 % 0 % 1023,4 hPa 0,0 l/m 1,8 km/h (1 Bft) W 270 0 min 0,0 UV-I -1,8 C 0,6 C 3,4 km/h (1 Bft)
01.03.2013 19:40 0,5 C 7,7 C 0,5 C 0,5 C 0,5 C 0,0 C 84 % 93 % 0 % 1023,4 hPa 0,0 l/m 1,9 km/h (1 Bft) SW 225 0 min 0,0 UV-I -1,9 C 0,5 C 3,1 km/h (1 Bft)
01.03.2013 19:45 0,5 C 7,8 C 0,4 C 0,4 C 0,3 C 0,0 C 84 % 93 % 0 % 1023,4 hPa 0,0 l/m 2,1 km/h (1 Bft) W-SW 247 0 min 0,0 UV-I -1,9 C 0,3 C 2,3 km/h (1 Bft)
01.03.2013 19:50 0,4 C 7,8 C 0,5 C 0,4 C 0,3 C 0,0 C 84 % 93 % 0 % 1023,4 hPa 0,0 l/m 2,1 km/h (1 Bft) W-SW 247 0 min 0,0 UV-I -2,0 C 0,3 C 3,2 km/h (1 Bft)
01.03.2013 19:55 0,4 C 7,8 C 0,4 C 0,3 C 0,2 C 0,0 C 84 % 93 % 0 % 1023,4 hPa 0,0 l/m 2,6 km/h (1 Bft) W-SW 247 0 min 0,0 UV-I -2,0 C 0,2 C 6,4 km/h (2 Bft)
01.03.2013 20:00 0,5 C 7,8 C 0,4 C 0,3 C -0,1 C 0,0 C 84 % 93 % 0 % 1023,6 hPa 0,0 l/m 3,1 km/h (1 Bft) W-SW 247 0 min 0,0 UV-I -1,9 C -0,1 C 2,4 km/h (1 Bft)
01.03.2013 20:05 0,4 C 7,8 C 0,4 C 0,4 C 0,3 C 0,0 C 85 % 93 % 0 % 1023,6 hPa 0,0 l/m 2,6 km/h (1 Bft) W-SW 247 0 min 0,0 UV-I -1,8 C 0,3 C 3,1 km/h (1 Bft)
01.03.2013 20:10 0,4 C 7,8 C 0,5 C 0,4 C 0,4 C 0,0 C 85 % 93 % 0 % 1023,6 hPa 0,0 l/m 2,3 km/h (1 Bft) W-SW 247 0 min 0,0 UV-I -1,8 C 0,4 C 3,1 km/h (1 Bft)
01.03.2013 20:15 0,4 C 7,7 C 0,3 C 0,4 C 0,3 C 0,0 C 85 % 93 % 0 % 1023,6 hPa 0,0 l/m 2,6 km/h (1 Bft) SW 225 0 min 0,0 UV-I -1,8 C 0,3 C 3,5 km/h (1 Bft)
01.03.2013 20:20 0,4 C 7,7 C 0,3 C 0,3 C 0,2 C 0,0 C 85 % 93 % 0 % 1024,2 hPa 0,0 l/m 2,6 km/h (1 Bft) W-SW 247 0 min 0,0 UV-I -1,8 C 0,2 C 3,1 km/h (1 Bft)
01.03.2013 20:25 0,3 C 7,8 C 0,4 C 0,3 C 0,2 C 0,0 C 85 % 93 % 0 % 1024,2 hPa 0,0 l/m 2,6 km/h (1 Bft) W-SW 247 0 min 0,0 UV-I -1,9 C 0,2 C 2,7 km/h (1 Bft)
01.03.2013 20:30 0,3 C 7,7 C 0,4 C 0,4 C 0,4 C 0,1 C 85 % 93 % 0 % 1024,2 hPa 0,0 l/m 2,4 km/h (1 Bft) W-SW 247 0 min 0,0 UV-I -1,9 C 0,4 C 2,7 km/h (1 Bft)
01.03.2013 20:35 0,3 C 7,7 C 0,4 C 0,4 C 0,4 C 0,1 C 85 % 93 % 0 % 1024,2 hPa 0,0 l/m 2,3 km/h (1 Bft) W-SW 247 0 min 0,0 UV-I -1,9 C 0,4 C 3,7 km/h (1 Bft)
01.03.2013 20:40 0,2 C 7,7 C 0,4 C 0,4 C 0,4 C 0,2 C 85 % 93 % 0 % 1024,4 hPa 0,0 l/m 2,1 km/h (1 Bft) SW 225 0 min 0,0 UV-I -2,0 C 0,4 C 3,5 km/h (1 Bft)
01.03.2013 20:45 0,3 C 7,7 C 0,5 C 0,3 C 0,2 C 0,0 C 85 % 93 % 0 % 1024,4 hPa 0,0 l/m 2,9 km/h (1 Bft) W-SW 247 0 min 0,0 UV-I -1,9 C 0,2 C 4,3 km/h (1 Bft)
01.03.2013 20:50 0,4 C 7,7 C 0,4 C 0,2 C -0,1 C 0,0 C 85 % 93 % 0 % 1024,4 hPa 0,0 l/m 3,5 km/h (1 Bft) W-SW 247 0 min 0,0 UV-I -1,8 C -0,1 C 3,5 km/h (1 Bft)
01.03.2013 20:55 0,3 C 7,7 C 0,5 C 0,1 C -0,4 C 0,0 C 85 % 93 % 0 % 1024,4 hPa 0,0 l/m 4,2 km/h (1 Bft) S-SW 202 0 min 0,0 UV-I -1,9 C -0,4 C 5,0 km/h (1 Bft)
01.03.2013 21:00 0,3 C 7,8 C 0,4 C 0,0 C -0,5 C 0,0 C 85 % 93 % 0 % 1023,7 hPa 0,0 l/m 4,2 km/h (1 Bft) W-SW 247 0 min 0,0 UV-I -1,9 C -0,5 C 4,8 km/h (1 Bft)
01.03.2013 21:05 0,1 C 7,8 C 0,3 C -0,1 C -0,4 C 0,0 C 85 % 93 % 0 % 1023,7 hPa 0,0 l/m 3,9 km/h (1 Bft) SW 225 0 min 0,0 UV-I -2,1 C -0,4 C 3,9 km/h (1 Bft)
01.03.2013 21:10 0,0 C 8,0 C 0,3 C -0,2 C -0,5 C 0,0 C 85 % 93 % 0 % 1023,7 hPa 0,0 l/m 3,5 km/h (1 Bft) W-SW 247 0 min 0,0 UV-I -2,2 C -0,5 C 3,9 km/h (1 Bft)
01.03.2013 21:15 -0,1 C 7,8 C 0,2 C -0,3 C -0,6 C 0,0 C 86 % 93 % 0 % 1023,7 hPa 0,0 l/m 3,7 km/h (1 Bft) W-SW 247 0 min 0,0 UV-I -2,2 C -0,6 C 5,1 km/h (1 Bft)
01.03.2013 21:20 -0,1 C 7,8 C 0,2 C -0,3 C -0,7 C 0,0 C 85 % 93 % 0 % 1023,6 hPa 0,0 l/m 3,9 km/h (1 Bft) SW 225 0 min 0,0 UV-I -2,3 C -0,7 C 4,0 km/h (1 Bft)
01.03.2013 21:25 0,1 C 7,8 C 0,3 C -0,2 C -0,9 C 0,0 C 85 % 93 % 0 % 1023,6 hPa 0,0 l/m 4,2 km/h (1 Bft) W-SW 247 0 min 0,0 UV-I -2,1 C -0,9 C 3,1 km/h (1 Bft)
01.03.2013 21:30 0,0 C 7,7 C 0,3 C -0,2 C -0,7 C 0,0 C 85 % 93 % 0 % 1023,6 hPa 0,0 l/m 3,9 km/h (1 Bft) SW 225 0 min 0,0 UV-I -2,2 C -0,7 C 4,2 km/h (1 Bft)
01.03.2013 21:35 0,0 C 7,7 C 0,3 C -0,1 C -0,2 C 0,0 C 85 % 93 % 0 % 1023,6 hPa 0,0 l/m 3,1 km/h (1 Bft) W 270 0 min 0,0 UV-I -2,2 C -0,2 C 2,4 km/h (1 Bft)
01.03.2013 21:45 -0,1 C 7,8 C 0,2 C 0,3 C 0,3 C 0,4 C 85 % 93 % 0 % 1023,6 hPa 0,0 l/m 0,3 km/h (0 Bft) O-NO 67 0 min 0,0 UV-I -2,3 C 0,3 C 1,9 km/h (1 Bft)
01.03.2013 21:50 -0,1 C 7,8 C 0,3 C 0,3 C 0,3 C 0,4 C 85 % 93 % 0 % 1023,6 hPa 0,0 l/m 0,2 km/h (0 Bft) NO 45 0 min 0,0 UV-I -2,3 C 0,3 C 0,0 km/h (0 Bft)
01.03.2013 21:55 -0,1 C 8,0 C 0,3 C 0,2 C 0,2 C 0,3 C 85 % 93 % 0 % 1023,6 hPa 0,0 l/m 0,2 km/h (0 Bft) O-SO 112 0 min 0,0 UV-I -2,3 C 0,2 C 0,0 km/h (0 Bft)
01.03.2013 22:00 -0,2 C 8,0 C 0,3 C 0,1 C 0,1 C 0,3 C 85 % 93 % 0 % 1024,3 hPa 0,0 l/m 0,0 km/h (0 Bft) S 180 0 min 0,0 UV-I -2,4 C 0,1 C 0,0 km/h (0 Bft)
01.03.2013 22:05 -0,1 C 8,0 C 0,1 C 0,1 C 0,1 C 0,2 C 86 % 93 % 0 % 1024,3 hPa 0,0 l/m 0,0 km/h (0 Bft) NW 315 0 min 0,0 UV-I -2,2 C 0,1 C 0,0 km/h (0 Bft)
01.03.2013 22:10 -0,1 C 8,0 C 0,1 C 0,0 C 0,0 C 0,1 C 86 % 93 % 0 % 1024,3 hPa 0,0 l/m 0,0 km/h (0 Bft) NO 45 0 min 0,0 UV-I -2,2 C 0,0 C 0,0 km/h (0 Bft)
01.03.2013 22:15 -0,3 C 8,0 C -0,1 C -0,3 C -0,3 C 0,0 C 86 % 93 % 0 % 1024,3 hPa 0,0 l/m 0,0 km/h (0 Bft) O 90 0 min 0,0 UV-I -2,3 C -0,3 C 0,0 km/h (0 Bft)
01.03.2013 22:20 -0,4 C 8,0 C -0,1 C -0,4 C -0,5 C 0,0 C 86 % 93 % 0 % 1024,2 hPa 0,0 l/m 0,0 km/h (0 Bft) SO 135 0 min 0,0 UV-I -2,4 C -0,5 C 0,0 km/h (0 Bft)
01.03.2013 22:25 -0,5 C 8,0 C -0,2 C -0,6 C -0,7 C 0,0 C 86 % 93 % 0 % 1024,2 hPa 0,0 l/m 0,0 km/h (0 Bft) S 180 0 min 0,0 UV-I -2,5 C -0,7 C 0,0 km/h (0 Bft)
01.03.2013 22:30 -0,5 C 8,0 C -0,1 C -0,6 C -0,7 C 0,0 C 86 % 93 % 0 % 1024,2 hPa 0,0 l/m 0,0 km/h (0 Bft) W 270 0 min 0,0 UV-I -2,5 C -0,7 C 0,0 km/h (0 Bft)
01.03.2013 22:35 -0,6 C 8,0 C -0,2 C -0,6 C -0,7 C 0,0 C 86 % 93 % 0 % 1024,2 hPa 0,0 l/m 0,0 km/h (0 Bft) N-NO 22 0 min 0,0 UV-I -2,6 C -0,7 C 0,0 km/h (0 Bft)
01.03.2013 22:40 -0,5 C 8,0 C -0,2 C -0,5 C -0,6 C 0,0 C 86 % 93 % 0 % 1024,9 hPa 0,0 l/m 0,2 km/h (0 Bft) O-NO 67 0 min 0,0 UV-I -2,5 C -0,6 C 0,0 km/h (0 Bft)
01.03.2013 22:45 -0,5 C 8,0 C -0,1 C -0,4 C -0,4 C 0,1 C 86 % 93 % 0 % 1024,9 hPa 0,0 l/m 0,2 km/h (0 Bft) N-NW 337 0 min 0,0 UV-I -2,5 C -0,4 C 0,0 km/h (0 Bft)
01.03.2013 22:50 -0,5 C 8,0 C -0,1 C -0,3 C -0,3 C 0,2 C 86 % 93 % 0 % 1024,9 hPa 0,0 l/m 0,0 km/h (0 Bft) N-NO 22 0 min 0,0 UV-I -2,5 C -0,3 C 0,0 km/h (0 Bft)
01.03.2013 22:55 -0,5 C 8,0 C -0,1 C -0,2 C -0,2 C 0,3 C 86 % 93 % 0 % 1024,9 hPa 0,0 l/m 0,0 km/h (0 Bft) O-NO 67 0 min 0,0 UV-I -2,5 C -0,2 C 0,0 km/h (0 Bft)
01.03.2013 23:00 -0,5 C 8,0 C -0,1 C -0,2 C -0,2 C 0,3 C 86 % 93 % 0 % 1025,0 hPa 0,0 l/m 0,2 km/h (0 Bft) O-SO 112 0 min 0,0 UV-I -2,5 C -0,2 C 0,0 km/h (0 Bft)
01.03.2013 23:05 -0,5 C 8,0 C -0,1 C -0,3 C -0,3 C 0,2 C 86 % 93 % 0 % 1025,0 hPa 0,0 l/m 0,2 km/h (0 Bft) O-NO 67 0 min 0,0 UV-I -2,5 C -0,3 C 0,0 km/h (0 Bft)
01.03.2013 23:10 -0,5 C 8,0 C -0,1 C -0,3 C -0,3 C 0,2 C 86 % 93 % 0 % 1025,0 hPa 0,0 l/m 0,0 km/h (0 Bft) O-SO 112 0 min 0,0 UV-I -2,5 C -0,3 C 0,0 km/h (0 Bft)
01.03.2013 23:15 -0,6 C 8,0 C -0,1 C -0,5 C -0,5 C 0,1 C 86 % 93 % 0 % 1025,0 hPa 0,0 l/m 0,0 km/h (0 Bft) O-NO 67 0 min 0,0 UV-I -2,6 C -0,5 C 0,0 km/h (0 Bft)
01.03.2013 23:20 -0,5 C 8,0 C -0,3 C -0,5 C -0,6 C 0,0 C 86 % 93 % 0 % 1025,1 hPa 0,0 l/m 0,0 km/h (0 Bft) S 180 0 min 0,0 UV-I -2,5 C -0,6 C 0,0 km/h (0 Bft)
01.03.2013 23:25 -0,5 C 8,0 C -0,3 C -0,6 C -0,7 C 0,0 C 86 % 93 % 0 % 1025,1 hPa 0,0 l/m 0,2 km/h (0 Bft) O-SO 112 0 min 0,0 UV-I -2,5 C -0,7 C 0,0 km/h (0 Bft)
01.03.2013 23:30 -0,5 C 8,0 C -0,4 C -0,6 C -0,7 C 0,0 C 86 % 93 % 0 % 1025,1 hPa 0,0 l/m 0,2 km/h (0 Bft) O 90 0 min 0,0 UV-I -2,5 C -0,7 C 0,0 km/h (0 Bft)
01.03.2013 23:35 -0,7 C 8,0 C -0,5 C -0,9 C -1,2 C 0,0 C 86 % 93 % 0 % 1025,1 hPa 0,0 l/m 0,0 km/h (0 Bft) W-SW 247 0 min 0,0 UV-I -2,7 C -1,2 C 0,0 km/h (0 Bft)
01.03.2013 23:40 -0,7 C 8,0 C -0,5 C -0,9 C -1,4 C 0,0 C 86 % 93 % 0 % 1025,2 hPa 0,0 l/m 0,2 km/h (0 Bft) SO 135 0 min 0,0 UV-I -2,7 C -1,4 C 0,0 km/h (0 Bft)
01.03.2013 23:45 -0,8 C 8,0 C -0,5 C -1,0 C -1,4 C 0,0 C 86 % 93 % 0 % 1025,2 hPa 0,0 l/m 0,2 km/h (0 Bft) O-NO 67 0 min 0,0 UV-I -2,8 C -1,4 C 0,0 km/h (0 Bft)
01.03.2013 23:50 -0,8 C 8,0 C -0,7 C -1,0 C -1,4 C 0,0 C 86 % 93 % 0 % 1025,2 hPa 0,0 l/m 0,0 km/h (0 Bft) N-NO 22 0 min 0,0 UV-I -2,8 C -1,4 C 0,0 km/h (0 Bft)
01.03.2013 23:55 -0,9 C 8,0 C -0,7 C -1,1 C -1,5 C 0,0 C 86 % 93 % 0 % 1025,2 hPa 0,0 l/m 0,0 km/h (0 Bft) W 270 0 min 0,0 UV-I -2,9 C -1,5 C 0,0 km/h (0 Bft)
_ Min-Zeit 07:00 14:35 23:50 06:55 06:50 00:00 16:15 15:10 00:00 06:40 - 22:00 - - - 00:00 23:55 07:40 15:20
Minimum _ -1,1 C 7,6 C -0,7 C -1,6 C -2,9 C 0,0 C 79 % 91 % 0 % 1021,5 hPa - 0,0 km/h (0 Bft) - - - 0,0 UV-I -2,9 C -6,2 C 0,0 km/h (0 Bft)
_ Max-Zeit 15:50 05:35 15:40 15:40 15:40 15:40 10:05 00:10 15:40 23:40 11:15 07:40 - - 17:30 11:15 15:35 15:40 07:35
Maximum _ 2,1 C 8,1 C 2,5 C 4,1 C 4,1 C 2,1 C 92 % 95 % 55 % 1025,2 hPa 0,7 l/m 8,2 km/h
W-NW (2 Bft)
- - 5 min 0,3 UV-I -0,7 C 4,1 C 15,1 km/h
W-NW (3 Bft)
Durchschnitt _ 0,2 C 7,9 C 0,8 C 0,3 C -0,1 C 0,3 C 86 % 93 % 6 % 1022,9 hPa #0,7 l/m 4,3 km/h (1 Bft) W-SW - #10 min. 0,1 UV-I -1,8 C -1,2 C 5,3 km/h (1 Bft)
2013 www.wetterstation-wechselburg.de